Погода в Пунта-Кана

Доминиканская Республика     18°33′38″N   68°21′53″W
темп.,
°C
ветер,
м/с
пор.,
м/с
влажн.,
%
обл.,
%
осадки,
мм/ч
давл.,
гПа
погр.,
м
25 февраля, чт
чт2523:00+26всв8107273 0.0 10181038
02:00+25в9107355 0.2 10181072
05:00+25всв897771 0.1 1017993
08:00+25в8107271 0.3 10191216
11:00+26в8107139 0.1 10201220
14:00+26всв676820 0.2 10181207
17:00+26в577045 0.6 10161040
20:00+25всв677660 0.9 1018828
26 февраля, пт
пт2623:00+25всв10127790 0.3 1018929
02:00+25всв9117551 0.3 10171163
05:00+25всв910735 0.1 10161223
08:00+25всв8107224 0.1 10181224
11:00+26всв8106969 0.0 10191277
14:00+26всв8107035 0.0 10171188
17:00+26всв8107444 0.0 10161200
20:00+25всв10117370 0.1 10181184
27 февраля, сб
сб2723:00+25всв11137495 0.0 10181124
02:00+25всв11137651 0.1 10171233
05:00+25всв11147829 1.8 10171135
08:00+26всв11137332 2.6 10191311
11:00+26всв10127223 0.1 10201319
14:00+26всв10127312 0.1 10181080
17:00+26всв1114770 1.7 1016980
20:00+26всв1114751 2.7 10181156
28 февраля, вс
вс2823:00+26всв11137516 0.4 10191344
02:00+26всв12147315 0.8 10181364
05:00+25всв11137522 0.7 10171295
08:00+25всв12147612 1.9 10191213
11:00+25всв1113743 0.6 10201246
14:00+26всв1012734 0.7 10171148
17:00+25всв1113760 0.1 1016968
20:00+25св1113791 0.1 1017980
1 марта, пн
пн123:00+25всв1012762 0.0 10181029
02:00+25всв10127417 0.0 10161073
05:00+25всв911720 0.0 10151234
08:00+25всв1012787 1.2 10171135
11:00+25всв911750 0.5 10181079
14:00+25всв911761 1.0 1016977
17:00+25св910771 0.0 1014944
20:00+25св9107621 0.1 10151030